Regional Weather Roundup
Issued by NWS Wilmington, NC

Home | Current Version | Previous Version | Text Only | Print | Product List | Glossary On
Versions: 1 2 3 4 5 6 7 8 9 10 11 12 13 14 15 16 17 18 19 20 21 22 23 24 25 26 27 28 29 30 31 32 33 34 35 36 37 38 39 40 41 42 43 44 45 46 47 48 49 50
000
ASUS42 KILM 260913
RWRILM
RWRILM
REGIONAL HOURLY WEATHER ROUNDUP
NATIONAL WEATHER SERVICE WILMINGTON NC
500 AM EDT TUE JUL 26 2016

NOTE: "FAIR" INDICATES FEW OR NO CLOUDS BELOW 12,000 FEET WITH NO
SIGNIFICANT WEATHER AND/OR OBSTRUCTIONS TO VISIBILITY.

...............WFO WILMINGTON COUNTY WARNING AREA...............

......COASTAL NC AND SC COUNTIES......

CITY           SKY/WX    TMP DP  RH WIND       PRES   REMARKS
WILMINGTON     CLEAR     78  73  84 SW6       30.02S
N MYRTLE BEACH CLEAR     79  73  82 SW9       30.02S
MYRTLE BEACH   CLEAR     77  66  69 SW3       30.05R

......INLAND NC AND SC COUNTIES.......

CITY           SKY/WX    TMP DP  RH WIND       PRES   REMARKS
LUMBERTON      CLOUDY    76  73  91 S5        30.01R
ELIZABETHTOWN  PTCLDY    77  74  90 S3        30.02S
WHITEVILLE     CLEAR     76  73  90 SW3       30.01F
FLORENCE       MOCLDY    77  73  87 SW7       30.02S
DARLINGTON     CLEAR     76  73  91 SW7       30.02S
KINGSTREE      FAIR      73  70  88 CALM      30.03R
HARTSVILLE     FAIR      73  70  88 SW3       30.02S
BENNETTSVILLE  FAIR      77  73  88 CALM      30.01S
CONWAY         FAIR      73  72  94 S5        30.03S
GEORGETOWN     FAIR      72  70  94 SW3       30.04S
MARION           N/A     73  72  94 SW3       30.03R

....................REST OF NORTH CAROLINA......................

.........EASTERN NC.........

CITY           SKY/WX    TMP DP  RH WIND       PRES   REMARKS
CAPE HATTERAS  PTCLDY    81  76  84 W9        30.01S
JACKSONVILLE   PTCLDY    75  74  96 SW5       30.03R
MOREHEAD CITY  PTCLDY    81  75  82 W12       30.02S
KENANSVILLE    NOT AVBL
NEW BERN       PTCLDY    77  73  87 SW5       30.02S
ELIZABETH CITY PTCLDY    79  73  82 SW12      29.96S

.........CENTRAL NC.........

CITY           SKY/WX    TMP DP  RH WIND       PRES   REMARKS
RALEIGH DURHAM PTCLDY    78  72  81 SW9       30.00R
ROCKY MOUNT    CLEAR     76  73  91 S6        29.99R
ROANOKE RAPIDS NOT AVBL
FAYETTEVILLE   CLOUDY    78  72  81 SW8       30.00S
HOFFMAN        CLOUDY    76  72  86 SW2       30.01S

.........WESTERN NC.........

CITY           SKY/WX    TMP DP  RH WIND       PRES   REMARKS
CHARLOTTE      MOCLDY    78  68  71 SW6       30.02S
GREENSBORO     CLEAR     78  71  79 SW5       30.01R
HICKORY        NOT AVBL
BOONE          NOT AVBL
ASHEVILLE      NOT AVBL

.....................REST OF SOUTH CAROLINA.....................

.........EASTERN SC.........

CITY           SKY/WX    TMP DP  RH WIND       PRES   REMARKS
CHARLESTON     CLEAR     75  72  90 SW3       30.03S
BEAUFORT MCAS  CLEAR     78  74  87 SW6       30.03S
HILTON HEAD    CLEAR     81  77  89 SW6       30.04S

.........CENTRAL SC.........

CITY           SKY/WX    TMP DP  RH WIND       PRES   REMARKS
COLUMBIA       CLEAR     78  71  79 SW6       30.01F
ORANGEBURG     CLEAR     74  71  91 SW3       30.03F
SUMTER SHAW    CLEAR     77  72  83 SW8       30.00S

.........WESTERN SC.........

CITY           SKY/WX    TMP DP  RH WIND       PRES   REMARKS
GREENVILLE     NOT AVBL
ROCK HILL      CLEAR     76  69  79 SW6       30.03R
ANDERSON       CLEAR     77  72  84 S3        30.02F
CLEMSON        NOT AVBL
GREENWOOD      CLEAR     77  69  76 S7        30.03S


...................COASTAL AND OFFSHORE REPORTS..................

................LOCAL PIERS AND NC RESERVE................


STATION/POSITION TIME  SKY/WX   TEMP    WIND        PRES    VSBY
                                AIR SEA DIR/SP/G
                 (UTC)          (F)     (DEG/KT/KT) (MB)    (MI)
JOHNY MRCER PIER 0800            80 80  230/  7/  9 1015.5F
NC RESRV MASNBRO NOT AVBL
OCEAN CREST PIER NOT AVBL
SPRINGMAID  PIER 0800            80 84              1016.4F


................COASTAL AND OFFSHORE BUOYS................


STATION/POSITION TIME  SKY/WX   TEMP    WIND        PRES    VSBY
                                AIR SEA DIR/SP/G
                 (UTC)          (F)     (DEG/KT/KT) (MB)    (MI)
DIMNDSHOAL 41025 0850            84 85  250/ 19/ 21 1016.0F
WVE H/P(F/S)=  5/ 6

CAPE LOOKOUT     0900            82     250/ 15/ 18 1016.3R
ONSLOW BAY 41036 NOT AVBL
ONSLOW BAY 41064 0808            84 85  250/ 16/ 21 1016.4R
ONSLOW BAY 41159 0825               85                N/A
WVE H/P(F/S)=  4/ 5

5SE WRITBC 41038 0808            81 81  250/ 10/ 12 1017.4F
MASNBO INL 41110 0806               81                N/A
WVE H/P(F/S)=  2/ 4

WILM HARBR 41108 0826               85                N/A
WVE H/P(F/S)=  4/ 5

27SE WRITB 41037 0808            84 84  240/ 16/ 19 1016.6F
FRYING PAN 41013 0800            84 86  240/ 14/ 17 1016.5F
SUNST NRSH 41024 0808            83 83  240/ 17/ 21 1016.5S
CAPRS NRSH 41029 0808            83 83  230/ 14/ 19 1016.7F
EDISTO     41004 0850            84 86  220/ 14/ 16 1016.4F
WVE H/P(F/S)=  2/ 4 SWL H/P/D(F/S/D)=  2/130/ 9



..........OFFSHORE BUOYS BEYOND 100 NM OFFSHORE...........
.....IN A TRIANGLE---HAT TO BERMUDA TO BAHAMAS TO HAT.....


STATION/POSITION TIME  SKY/WX   TEMP    WIND        PRES    VSBY
                                AIR SEA DIR/SP/G
                 (UTC)          (F)     (DEG/KT/KT) (MB)    (MI)
150E HAT   41001 NOT AVBL
W BERMUDA  41048 0850            83 84  260/ 12/ 14 1018.4S
WVE H/P(F/S)=  2/ 8 SWL H/P/D(F/S/D)=  2/140/ 8

ATLANTIC S 41049 0850            82 85   CALM  /  4 1019.9R
WVE H/P(F/S)=  3/ 7 SWL H/P/D(F/S/D)=  3/ 90/ 7

E BAHAMAS  41046 0800            83 85   80/ 14/ 16 1017.4S
NE BAHAMAS 41047 0800            83 86  140/  4/  6 1019.0S
120E CANVRL41010 0820            85 86  180/ 10/ 12 1018.2F

END



USA.gov is the U.S. government's official web portal to all federal, state and local government web resources and services.